TimeMST,TemperatureF,Dew PointF,Humidity,Sea Level PressureIn,VisibilityMPH,Wind Direction,Wind SpeedMPH,Gust SpeedMPH,PrecipitationIn,Events,Conditions,WindDirDegrees,DateUTC
12:53 AM,21.9,10.0,60,30.41,10.0,Calm,Calm,-,N/A,,Clear,0,2014-01-15 07:53:00
1:53 AM,19.0,9.0,65,30.42,10.0,SSW,3.5,-,N/A,,Clear,200,2014-01-15 08:53:00
2:53 AM,19.9,10.0,65,30.40,10.0,Calm,Calm,-,N/A,,Clear,0,2014-01-15 09:53:00
3:53 AM,16.0,8.1,71,30.39,10.0,Calm,Calm,-,N/A,,Clear,0,2014-01-15 10:53:00
4:53 AM,18.0,9.0,68,30.40,10.0,Calm,Calm,-,N/A,,Clear,0,2014-01-15 11:53:00
5:53 AM,18.0,9.0,68,30.45,10.0,South,5.8,-,N/A,,Clear,190,2014-01-15 12:53:00
6:53 AM,18.0,9.0,68,30.45,10.0,Calm,Calm,-,N/A,,Clear,0,2014-01-15 13:53:00
7:53 AM,14.0,7.0,74,30.48,10.0,Variable,4.6,-,N/A,,Clear,0,2014-01-15 14:53:00
8:53 AM,26.1,12.9,58,30.45,10.0,Calm,Calm,-,N/A,,Clear,0,2014-01-15 15:53:00
9:53 AM,36.0,15.1,43,30.41,10.0,South,5.8,-,N/A,,Clear,190,2014-01-15 16:53:00
10:53 AM,46.0,15.1,29,30.38,10.0,Variable,4.6,-,N/A,,Clear,0,2014-01-15 17:53:00
11:42 AM,52.0,10.0,19,30.40,10.0,North,13.8,-,N/A,,Clear,350,2014-01-15 18:42:00
11:53 AM,53.1,10.0,18,30.29,10.0,North,13.8,-,N/A,,Clear,360,2014-01-15 18:53:00
12:53 PM,55.0,8.1,15,30.26,10.0,North,15.0,-,N/A,,Clear,350,2014-01-15 19:53:00
1:53 PM,55.0,6.1,14,30.26,10.0,North,13.8,21.9,N/A,,Clear,350,2014-01-15 20:53:00
2:53 PM,54.0,5.0,14,30.26,10.0,NNW,15.0,21.9,N/A,,Clear,330,2014-01-15 21:53:00
3:53 PM,53.1,3.0,13,30.28,10.0,NNW,17.3,23.0,N/A,,Clear,340,2014-01-15 22:53:00
4:53 PM,50.0,1.9,14,30.27,10.0,NNW,11.5,-,N/A,,Clear,340,2014-01-15 23:53:00
5:53 PM,41.0,1.0,19,30.30,10.0,NNW,8.1,-,N/A,,Clear,340,2014-01-16 00:53:00
6:53 PM,39.0,3.0,22,30.30,10.0,NNE,8.1,-,N/A,,Clear,20,2014-01-16 01:53:00
7:53 PM,33.1,3.0,28,30.35,10.0,Calm,Calm,-,N/A,,Clear,0,2014-01-16 02:53:00
8:53 PM,28.9,5.0,36,30.31,10.0,Calm,Calm,-,N/A,,Clear,0,2014-01-16 03:53:00
9:53 PM,27.0,6.1,41,30.28,10.0,Calm,Calm,-,N/A,,Clear,0,2014-01-16 04:53:00
10:53 PM,23.0,5.0,46,30.25,10.0,Calm,Calm,-,N/A,,Clear,0,2014-01-16 05:53:00
11:53 PM,21.0,5.0,50,30.24,10.0,Calm,Calm,-,N/A,,Clear,0,2014-01-16 06:53:00